FW9206 Weather Reports


time (UTC)temp
C
wind
direction
speed
KPH
gust
KPH
rain 1hr
cm
rain 24hr
cm
rain mn
cm
humidity
%
barometer
mb
20260507070006 10 301 9.7 17.7 0.00 0.58 0.03 88 1008.4
20260507065404 10 301 9.7 19.3 0.00 0.58 0.03 88 1008.3
20260507064504 10 293 6.4 14.5 0.00 0.58 0.03 88 1008.0
20260507063604 10 292 6.4 16.1 0.00 0.58 0.03 88 1008.1
20260507062703 10 289 6.4 16.1 0.00 0.58 0.03 88 1007.9
20260507061803 10 289 8.0 19.3 0.00 0.58 0.03 88 1007.8
20260507060903 10 291 9.7 19.3 0.00 0.58 0.03 88 1008.0
20260507060024 10 293 6.4 20.9 0.00 0.58 0.03 89 1008.1
20260507055403 10 286 8.0 20.9 0.00 0.58 0.03 89 1008.2
20260507054503 10 282 4.8 17.7 0.00 0.58 0.03 90 1008.4
20260507053603 10 293 6.4 11.3 0.00 0.58 0.03 88 1008.5
20260507052704 10 304 6.4 14.5 0.00 0.58 0.03 87 1008.7
20260507051803 10 304 6.4 16.1 0.00 0.58 0.03 87 1008.4
20260507050903 10 301 9.7 19.3 0.00 0.58 0.03 89 1008.6
20260507050004 11 307 8.0 19.3 0.03 0.58 0.03 89 1008.3
20260507045403 11 314 8.0 17.7 0.03 0.58 0.03 90 1008.2
20260507044504 11 308 9.7 25.7 0.03 0.58 0.03 90 1008.1
20260507043624 11 312 9.7 22.5 0.03 0.58 0.03 91 1008.3
20260507042703 11 310 11.3 22.5 0.03 0.58 0.03 92 1008.2
20260507041803 11 309 9.7 22.5 0.03 0.58 0.03 93 1008.4
20260507040903 12 304 9.7 24.1 0.03 0.58 0.03 93 1008.5
20260507040004 12 307 11.3 22.5 0.00 0.56 0.00 93 1008.3
20260507035403 12 309 9.7 24.1 0.00 0.56 0.56 93 1008.2
20260507034503 13 309 9.7 22.5 0.00 0.56 0.56 93 1008.0
20260507033603 13 300 9.7 24.1 0.00 0.56 0.56 94 1007.7
20260507032724 13 291 9.7 20.9 0.00 0.56 0.56 95 1007.7
20260507031803 14 305 8.0 25.7 0.00 0.56 0.56 95 1007.5
20260507030903 14 290 11.3 25.7 0.00 0.56 0.56 96 1007.4
20260507030004 14 278 12.9 25.7 0.00 0.56 0.56 96 1007.5
20260507025424 15 270 11.3 25.7 0.00 0.56 0.56 96 1007.5
20260507024503 15 258 11.3 29.0 0.00 0.56 0.56 96 1007.2
20260507023603 15 238 14.5 29.0 0.00 0.56 0.56 96 1007.3
20260507022703 15 221 11.3 20.9 0.00 0.56 0.56 96 1007.2
20260507021803 15 220 8.0 20.9 0.00 0.56 0.56 96 1006.9
20260507020903 15 220 9.7 24.1 0.00 0.56 0.56 96 1006.8
20260507020003 15 212 11.3 27.4 0.00 0.56 0.56 96 1006.9
20260507015403 15 211 9.7 27.4 0.03 0.56 0.56 96 1006.9
20260507014524 15 205 9.7 24.1 0.03 0.56 0.56 96 1007.0
20260507013624 15 202 11.3 22.5 0.03 0.56 0.56 96 1007.0
20260507012724 15 205 11.3 20.9 0.03 0.56 0.56 96 1007.0
20260507011803 15 204 9.7 24.1 0.03 0.56 0.56 96 1007.1
20260507010904 15 205 11.3 27.4 0.03 0.56 0.56 96 1007.0
20260507010004 15 199 8.0 24.1 0.03 0.56 0.56 96 1007.1
20260507005424 15 199 9.7 24.1 0.00 0.53 0.53 96 1007.1
20260507004504 15 200 9.7 22.5 0.00 0.53 0.53 96 1007.1
20260507003604 15 197 9.7 22.5 0.00 0.53 0.53 96 1007.0
20260507002703 15 202 9.7 22.5 0.00 0.53 0.53 96 1006.8
20260507001803 15 200 8.0 22.5 0.03 0.53 0.53 96 1006.9
20260507000903 15 200 9.7 27.4 0.08 0.53 0.53 96 1006.9
20260507000024 15 194 9.7 27.4 0.13 0.53 0.53 96 1006.7
20260506235403 15 199 9.7 27.4 0.13 0.53 0.53 96 1006.8
20260506234503 15 198 9.7 27.4 0.18 0.53 0.53 96 1006.6
20260506233604 15 198 8.0 20.9 0.23 0.53 0.53 96 1006.6
20260506232704 15 192 8.0 24.1 0.23 0.53 0.53 96 1006.6
20260506231804 15 190 8.0 27.4 0.20 0.51 0.51 96 1006.6
20260506230924 15 194 9.7 27.4 0.15 0.46 0.48 95 1006.7
20260506230003 15 192 8.0 22.5 0.13 0.41 0.41 95 1006.9
20260506225403 15 198 8.0 25.7 0.13 0.41 0.41 95 1007.0
20260506224503 15 197 8.0 22.5 0.10 0.36 0.36 95 1007.0
20260506223604 15 195 8.0 24.1 0.05 0.30 0.33 95 1007.0
20260506222705 15 192 8.0 22.5 0.08 0.30 0.30 95 1007.0
20260506221803 15 192 11.3 32.2 0.08 0.30 0.30 95 1007.1
20260506220924 15 192 9.7 32.2 0.08 0.30 0.30 95 1007.1
20260506220003 15 185 9.7 27.4 0.08 0.28 0.28 94 1007.1
20260506215424 15 191 9.7 33.8 0.10 0.28 0.28 94 1007.2
20260506214504 15 187 9.7 29.0 0.10 0.25 0.25 94 1007.1
20260506213604 15 181 9.7 27.4 0.13 0.25 0.25 94 1007.1
20260506212703 15 186 9.7 33.8 0.13 0.23 0.23 94 1007.2
20260506211803 15 187 11.3 29.0 0.15 0.23 0.23 94 1007.3
20260506210924 15 184 11.3 40.2 0.18 0.23 0.23 93 1007.5
20260506210004 15 183 11.3 33.8 0.15 0.20 0.20 93 1007.5
20260506205403 15 183 9.7 29.0 0.13 0.18 0.18 93 1007.6
20260506204504 15 189 11.3 29.0 0.10 0.15 0.15 92 1007.9
20260506203604 16 189 8.0 25.7 0.08 0.13 0.13 92 1007.7
20260506202703 16 200 8.0 25.7 0.05 0.10 0.10 91 1007.7
20260506201803 16 197 9.7 29.0 0.03 0.08 0.08 90 1007.9
20260506200903 16 194 9.7 25.7 0.03 0.05 0.05 90 1007.8
20260506200003 16 201 9.7 24.1 0.03 0.05 0.05 89 1007.8
20260506195424 16 205 8.0 22.5 0.05 0.05 0.05 89 1007.8
20260506194503 16 205 9.7 29.0 0.05 0.05 0.05 89 1007.9
20260506193603 16 198 11.3 32.2 0.05 0.05 0.05 88 1007.8
20260506192703 17 201 8.0 24.1 0.05 0.05 0.05 90 1007.9
20260506191803 17 197 4.8 11.3 0.05 0.05 0.05 89 1007.8
20260506190903 17 216 8.0 14.5 0.03 0.03 0.03 88 1007.7
20260506190003 17 225 8.0 19.3 0.03 0.03 0.03 87 1007.9
20260506185403 17 237 9.7 17.7 0.00 0.00 0.00 85 1008.1
20260506184503 17 250 9.7 16.1 0.00 0.00 0.00 83 1008.1
20260506183624 18 252 11.3 25.7 0.00 0.00 0.00 78 1008.3
20260506182724 20 241 14.5 37.0 0.00 0.00 0.00 72 1008.3
20260506181803 20 222 14.5 35.4 0.00 0.00 0.00 66 1008.3
20260506180904 21 217 19.3 40.2 0.00 0.00 0.00 63 1008.3
20260506180004 21 211 17.7 41.8 0.00 0.00 0.00 62 1008.2
20260506175403 21 211 12.9 33.8 0.00 0.00 0.00 61 1008.3
20260506174503 21 206 11.3 30.6 0.00 0.00 0.00 59 1008.2
20260506173603 21 199 11.3 35.4 0.00 0.00 0.00 59 1008.2
20260506172703 21 199 11.3 38.6 0.00 0.00 0.00 58 1008.1
20260506171804 21 196 14.5 46.7 0.00 0.00 0.00 59 1008.1
20260506170924 21 193 14.5 41.8 0.00 0.00 0.00 59 1008.4
20260506170024 21 200 17.7 43.5 0.00 0.00 0.00 60 1008.5
20260506165403 21 193 12.9 35.4 0.00 0.00 0.00 59 1008.7
20260506164503 21 197 9.7 29.0 0.00 0.00 0.00 61 1008.7
20260506163603 21 206 14.5 38.6 0.00 0.00 0.00 62 1008.9
20260506162703 21 198 12.9 30.6 0.00 0.00 0.00 63 1009.0
20260506161803 21 198 11.3 29.0 0.00 0.00 0.00 63 1009.1
20260506160925 21 201 11.3 29.0 0.00 0.00 0.00 64 1009.2
20260506160003 20 195 9.7 27.4 0.00 0.00 0.00 64 1009.6
20260506155403 20 202 11.3 25.7 0.00 0.00 0.00 65 1009.7
20260506154503 20 205 9.7 32.2 0.00 0.00 0.00 65 1009.9
20260506153603 20 205 11.3 32.2 0.00 0.00 0.00 66 1010.0
20260506152704 20 194 12.9 35.4 0.00 0.00 0.00 66 1010.2
20260506151803 20 206 11.3 37.0 0.00 0.00 0.00 66 1010.2
20260506150903 20 207 17.7 43.5 0.00 0.00 0.00 65 1010.3
20260506150004 20 194 16.1 41.8 0.00 0.00 0.00 66 1010.1
20260506145403 20 197 14.5 38.6 0.00 0.00 0.00 66 1010.2
20260506144503 20 202 11.3 32.2 0.00 0.00 0.00 67 1010.2
20260506143625 20 204 16.1 41.8 0.00 0.00 0.00 67 1010.2
20260506142724 20 199 9.7 24.1 0.00 0.00 0.00 67 1010.1
20260506141825 20 203 9.7 25.7 0.00 0.00 0.00 69 1010.1
20260506140903 20 196 11.3 32.2 0.00 0.00 0.00 71 1009.8
20260506140003 18 192 14.5 35.4 0.00 0.00 0.00 72 1010.0
20260506135403 18 192 12.9 33.8 0.00 0.00 0.00 72 1010.1
20260506134504 18 192 9.7 29.0 0.00 0.00 0.00 74 1010.2
20260506133604 18 192 9.7 33.8 0.00 0.00 0.00 75 1010.3
20260506132703 18 196 8.0 19.3 0.00 0.00 0.00 75 1010.5
20260506131824 17 195 11.3 32.2 0.00 0.00 0.00 76 1010.7
20260506130904 17 198 11.3 32.2 0.00 0.00 0.00 76 1010.7
20260506130004 17 191 8.0 25.7 0.00 0.00 0.00 76 1010.6
20260506125404 17 200 9.7 41.8 0.00 0.00 0.00 76 1010.8
20260506124524 17 199 12.9 27.4 0.00 0.00 0.00 76 1010.7
20260506123605 17 189 9.7 33.8 0.00 0.00 0.00 77 1010.5
20260506122703 17 193 8.0 20.9 0.00 0.00 0.00 77 1010.5
20260506121824 17 192 8.0 22.5 0.00 0.00 0.00 77 1010.7
20260506120925 17 197 9.7 29.0 0.00 0.00 0.00 77 1010.7
20260506120003 16 202 9.7 29.0 0.00 0.00 0.00 79 1010.7
20260506115403 16 199 9.7 27.4 0.00 0.00 0.00 79 1010.8
20260506114503 16 205 9.7 19.3 0.00 0.00 0.00 79 1010.9
20260506113603 16 193 11.3 37.0 0.00 0.00 0.00 79 1010.9
20260506112703 16 195 8.0 24.1 0.00 0.00 0.00 79 1011.2
20260506111803 16 193 9.7 24.1 0.00 0.00 0.00 79 1011.2
20260506110903 16 195 9.7 33.8 0.00 0.00 0.00 79 1011.0
20260506110004 16 186 8.0 22.5 0.00 0.00 0.00 80 1010.9
20260506105403 15 192 8.0 24.1 0.00 0.00 0.00 80 1011.2
20260506104503 15 187 6.4 24.1 0.00 0.00 0.00 80 1011.2
20260506103624 15 188 8.0 20.9 0.00 0.00 0.00 80 1011.2
20260506102703 15 186 8.0 24.1 0.00 0.00 0.00 80 1010.9
20260506101803 15 183 6.4 17.7 0.00 0.00 0.00 80 1010.8
20260506100903 15 192 6.4 20.9 0.00 0.00 0.00 80 1011.1
20260506100024 15 187 8.0 22.5 0.00 0.00 0.00 79 1011.1
20260506095403 15 183 6.4 16.1 0.00 0.00 0.00 79 1010.9
20260506094505 15 183 8.0 19.3 0.00 0.00 0.00 79 1010.8
20260506093624 15 179 6.4 19.3 0.00 0.00 0.00 79 1010.7
20260506092704 16 186 8.0 25.7 0.00 0.00 0.00 78 1011.0
20260506091804 16 191 8.0 24.1 0.00 0.00 0.00 78 1011.0
20260506090903 16 193 8.0 20.9 0.00 0.00 0.00 77 1010.9
20260506090004 16 197 8.0 24.1 0.00 0.00 0.00 77 1010.8
20260506085403 16 191 8.0 24.1 0.00 0.00 0.00 76 1010.9
20260506084526 16 195 8.0 20.9 0.00 0.00 0.00 76 1010.9
20260506083624 16 192 8.0 20.9 0.00 0.00 0.00 75 1011.0
20260506082703 16 192 8.0 30.6 0.00 0.00 0.00 75 1010.9
20260506081803 16 193 8.0 24.1 0.00 0.00 0.00 74 1010.9
20260506080904 16 194 9.7 29.0 0.00 0.00 0.00 74 1010.9
20260506072703 17 201 8.0 27.4 0.00 0.00 0.00 71 1010.7
20260506071803 17 199 11.3 29.0 0.00 0.00 0.00 70 1010.6
20260506070903 17 203 9.7 22.5 0.00 0.00 0.00 69 1010.6